[[{"header":{"parameterUnit":"m.s-1","parameterCategory":1,"la1":30.2991,"la2":30.254,"lo1":-89.0895,"lo2":-89.0444,"dy":0.0017,"dx":0.0017,"nx":28,"ny":28,"refTime":"2025-01-02T09:00:00:Z","depth":0,"parameterNumber":2,"parameterNumberName":"U-component_of_WINDS"},"data":[0,0,0,0,0,0,0,0,0,0,0,0,0,0,0,0,0,0,0,0,0,0,0,0,0,0,0,0,0,0,0,0,0,0,0,0,0,0,0,0,0,0,0,0,0,0,0,0,0,0,0,0,0,0,0,0,0,0,-2.5482,-2.5482,0,-2.5533,-2.5533,-2.5534,-2.5433,-2.543,-2.5426,-2.5423,-2.5478,-2.5482,-2.5487,0,0,0,0,0,0,0,0,0,0,0,0,0,-2.5299,-2.5303,-2.5482,-2.5482,-2.5483,-2.5533,-2.5533,-2.5534,-2.5434,-2.543,-2.5426,-2.5422,-2.5476,-2.5482,-2.5487,0,0,0,0,0,0,0,0,0,0,0,0,0,-2.5367,-2.5305,-2.5482,-2.5439,-2.5436,-2.5532,-2.5533,-2.5534,-2.5435,-2.543,-2.5425,-2.542,-2.5475,-2.5481,-2.5488,-2.563,0,0,-2.5509,-2.5512,0,0,0,0,0,0,0,0,-2.5364,-2.5374,-2.5445,-2.5442,-2.5439,-2.5471,-2.5489,-2.5566,-2.5436,-2.5435,-2.5423,-2.5418,-2.548,-2.5486,-2.5507,-2.5632,-2.5634,-2.5509,-2.5514,-2.5517,-2.5518,0,0,0,0,0,0,0,-2.5359,-2.5371,-2.5502,-2.5446,-2.5442,-2.5418,-2.5422,-2.5503,-2.5485,-2.5435,-2.5428,-2.5435,-2.5477,-2.55,-2.5507,-2.5635,-2.5509,-2.5515,-2.552,-2.5522,-2.5879,-2.5884,0,0,0,0,0,0,-2.5359,-2.5368,-2.55,-2.5503,-2.5388,-2.5425,-2.543,-2.5466,-2.5484,-2.5482,-2.5439,-2.543,-2.5491,-2.5499,-2.5509,-2.5676,-2.5516,-2.5523,-2.5527,-2.5874,-2.588,-2.5886,0,0,0,0,0,0,-2.5356,-2.5372,-2.5498,-2.5434,-2.5448,-2.5433,-2.5475,-2.547,-2.5492,-2.5487,-2.5483,-2.5466,-2.5487,-2.5499,-2.56,-2.5676,-2.5526,-2.5532,-2.5867,-2.5876,-2.5883,-2.6011,0,0,0,0,0,0,-2.5351,-2.5372,-2.5425,-2.5436,-2.5452,-2.5589,-2.548,-2.5474,-2.5504,-2.5493,-2.5511,-2.5509,-2.5484,-2.559,-2.5607,-2.5683,-2.5537,-2.586,-2.5871,-2.588,-2.6,-2.6023,-2.6042,0,0,0,0,0,-2.5345,-2.546,-2.5428,-2.5445,-2.5518,-2.5594,-2.5603,-2.5571,-2.5511,-2.5564,-2.5561,-2.5509,-2.5665,-2.5602,-2.5619,-2.5699,-2.5855,-2.5868,-2.588,-2.5991,-2.6018,-2.6042,0,0,0,0,0,0,-2.546,-2.5461,-2.5426,-2.5547,-2.5571,-2.5576,-2.5644,-2.5601,-2.5644,-2.5631,-2.5591,-2.5596,-2.5705,-2.5711,-2.5641,-2.5836,-2.575,-2.5766,-2.5828,-2.5854,-2.5875,-2.5872,-2.5543,0,0,0,0,0,-2.5499,-2.5559,-2.5557,-2.5664,-2.5678,-2.5659,-2.569,-2.5664,-2.5687,-2.5697,-2.57,-2.5726,-2.578,-2.5817,-2.5867,-2.6,-2.6003,-2.6063,-2.6084,-2.6101,-2.6116,-2.6187,-2.6214,-2.5926,-2.5926,-2.5925,0,0,-2.5581,-2.5589,-2.563,-2.5688,-2.5703,-2.5767,-2.5668,-2.574,-2.5787,-2.5708,-2.5804,-2.5807,-2.5832,-2.595,-2.6002,-2.5959,-2.6196,-2.6116,-2.613,-2.6136,-2.6202,-2.6229,-2.6254,-2.5934,-2.5932,-2.5931,0,0,-2.5764,-2.5776,-2.5867,-2.5883,-2.5907,-2.5893,-2.5915,-2.5927,-2.5926,-2.6021,-2.5962,-2.6018,-2.6113,-2.6133,-2.6156,-2.6345,-2.6299,-2.6362,-2.6472,-2.6541,-2.6564,-2.6584,-2.6652,-2.6677,-2.6376,-2.6377,-2.6377,0,-2.5864,-2.5957,-2.5919,-2.5995,-2.6022,-2.5951,-2.6044,-2.6062,-2.6101,-2.6122,-2.6072,-2.6189,-2.6201,-2.6323,-2.6369,-2.6389,-2.6413,-2.6361,-2.6564,-2.6583,-2.6601,-2.6666,-2.6692,-2.6384,-2.6384,-2.6383,-2.6382,0,-2.6079,-2.6145,-2.6215,-2.6254,-2.6289,-2.6373,-2.6347,-2.6387,-2.6357,-2.6349,-2.6446,-2.6457,-2.6508,-2.6535,-2.6506,-2.6652,-2.6625,-2.657,-2.6483,-2.6637,-2.6697,-2.6722,-2.6395,-2.6393,-2.639,-2.6388,0,0,-2.6339,-2.6353,-2.638,-2.6397,-2.6417,-2.6467,-2.6547,-2.6596,-2.6631,-2.666,-2.6727,-2.6808,-2.6757,-2.6783,-2.6756,-2.6817,-2.6966,-2.6755,-2.6754,-2.6795,-2.7128,-2.7171,-2.72,-2.6935,-2.6939,-2.6943,-2.7127,0,-2.6521,-2.6658,-2.6625,-2.6762,-2.6822,-2.6755,-2.6824,-2.6845,-2.6839,-2.6889,-2.6882,-2.694,-2.6868,-2.6884,-2.694,-2.6936,-2.7033,-2.6922,-2.6998,-2.7001,-2.6996,-2.7231,-2.7276,-2.7449,-2.715,-2.7154,-2.7156,0,-2.6752,-2.6789,-2.6932,-2.6941,-2.6965,-2.7029,-2.707,-2.7119,-2.714,-2.7131,-2.716,-2.712,-2.7199,-2.711,-2.7219,-2.7144,-2.7173,-2.7175,-2.7181,-2.7189,-2.709,-2.7247,-2.7503,-2.753,-2.7193,-2.719,-2.7187,0,-2.6929,-2.7014,-2.711,-2.7126,-2.7139,-2.7185,-2.7193,-2.7209,-2.724,-2.7276,-2.7296,-2.7342,-2.7367,-2.7403,-2.7377,-2.7314,-2.7491,-2.7399,-2.7487,-2.7488,-2.7529,-2.7527,-2.7796,-2.7545,-2.7544,-2.7544,-2.7543,0,-2.7137,-2.7227,-2.7189,-2.7249,-2.7348,-2.7308,-2.7407,-2.7407,-2.7422,-2.748,-2.7424,-2.748,-2.7441,-2.7494,-2.7474,-2.7568,-2.7579,-2.7575,-2.7569,-2.7581,-2.7582,-2.7601,-2.7589,-2.7551,-2.7549,-2.7548,-2.7547,0,-2.7352,-2.733,-2.7431,-2.7434,-2.7437,-2.751,-2.7513,-2.7568,-2.7557,-2.7631,-2.7647,-2.7629,-2.7688,-2.7665,-2.7728,-2.7714,-2.7835,-2.7812,-2.7828,-2.7823,-2.7912,-2.7905,-2.8204,-2.8242,-2.7965,-2.7967,-2.797,0,-2.7488,-2.7555,-2.7566,-2.76,-2.7612,-2.7668,-2.7699,-2.7662,-2.7697,-2.7725,-2.7778,-2.7831,-2.7873,-2.797,-2.7964,-2.8012,-2.7991,-2.8092,-2.7998,-2.8008,-2.7994,-2.7991,-2.7998,-2.8112,-2.8115,-2.8118,-2.812,0,-2.7731,-2.7716,-2.7763,-2.7806,-2.7844,-2.7876,-2.7903,-2.7935,-2.7899,-2.7941,-2.8,-2.8032,-2.8096,-2.8151,-2.8193,-2.82,-2.8155,-2.8149,-2.8172,-2.8186,-2.8193,-2.8192,-2.7881,-2.8143,-2.8141,-2.8139,-2.8138,-2.8137,-2.7911,-2.7968,-2.7984,-2.8038,-2.8054,-2.808,-2.8132,-2.8126,-2.8175,-2.8223,-2.8198,-2.8267,-2.8285,-2.8337,-2.8351,-2.8405,-2.8365,-2.8399,-2.8407,-2.8417,-2.8429,-2.8183,-2.8412,-2.8411,-2.8411,-2.841,-2.841,0,-2.8153,-2.8159,-2.8208,-2.8248,-2.829,-2.8241,-2.8268,-2.8307,-2.8368,-2.8389,-2.843,-2.8498,-2.855,-2.8547,-2.8595,-2.8638,-2.8619,-2.8652,-2.865,-2.8652,-2.8461,-2.8437,-2.8667,-2.8667,-2.8667,-2.8667,-2.8667,-2.8667,-2.8283,-2.8377,-2.8364,-2.8465,-2.847,-2.8537,-2.8557,-2.8581,-2.8597,-2.8675,-2.8718,-2.8714,-2.8725,-2.8773,-2.8819,-2.8816,-2.8837,-2.8879,-2.887,-2.8691,-2.8666,-2.8642,-2.8619,-2.8884,-2.8884,-2.9057,-2.9058,-2.9059]},{"header":{"parameterUnit":"m.s-1","parameterCategory":1,"la1":30.2991,"la2":30.254,"lo1":-89.0895,"lo2":-89.0444,"dy":0.0017,"dx":0.0017,"nx":28,"ny":28,"refTime":"2025-01-02T09:00:00:Z","depth":0,"parameterNumber":3,"parameterNumberName":"V-component_of_WINDS"},"data":[0,0,0,0,0,0,0,0,0,0,0,0,0,0,0,0,0,0,0,0,0,0,0,0,0,0,0,0,0,0,0,0,0,0,0,0,0,0,0,0,0,0,0,0,0,0,0,0,0,0,0,0,0,0,0,0,0,0,-4.3902,-4.3902,0,-4.3973,-4.3974,-4.3974,-4.3922,-4.392,-4.3917,-4.3915,-4.3983,-4.3987,-4.3991,0,0,0,0,0,0,0,0,0,0,0,0,0,-4.3715,-4.3718,-4.3902,-4.3902,-4.3903,-4.3973,-4.3974,-4.3975,-4.3922,-4.3919,-4.3917,-4.3914,-4.3982,-4.3987,-4.3991,0,0,0,0,0,0,0,0,0,0,0,0,0,-4.3792,-4.372,-4.3901,-4.3886,-4.3885,-4.3972,-4.3974,-4.3975,-4.3923,-4.3919,-4.3916,-4.3913,-4.3981,-4.3986,-4.3992,-4.4097,0,0,-4.401,-4.4013,0,0,0,0,0,0,0,0,-4.3787,-4.3799,-4.3887,-4.3887,-4.3886,-4.3935,-4.3933,-4.4016,-4.3924,-4.3908,-4.3915,-4.3911,-4.397,-4.3976,-4.3997,-4.4101,-4.4103,-4.4011,-4.4014,-4.4017,-4.4019,0,0,0,0,0,0,0,-4.3782,-4.3795,-4.393,-4.3888,-4.3888,-4.3873,-4.388,-4.3948,-4.3957,-4.3909,-4.3906,-4.3915,-4.3969,-4.3992,-4.3998,-4.4105,-4.4011,-4.4016,-4.402,-4.4022,-4.4295,-4.4299,0,0,0,0,0,0,-4.3779,-4.3791,-4.3927,-4.3932,-4.3828,-4.3879,-4.3887,-4.3923,-4.3956,-4.3958,-4.3918,-4.3912,-4.3983,-4.3991,-4.4,-4.4124,-4.4017,-4.4022,-4.4026,-4.4292,-4.4296,-4.43,0,0,0,0,0,0,-4.3775,-4.3792,-4.3924,-4.3861,-4.3876,-4.3886,-4.3926,-4.3926,-4.3949,-4.3963,-4.3964,-4.394,-4.3981,-4.3992,-4.4073,-4.4126,-4.4025,-4.403,-4.4287,-4.4293,-4.4298,-4.4374,0,0,0,0,0,0,-4.377,-4.3791,-4.3832,-4.3862,-4.388,-4.3998,-4.393,-4.393,-4.396,-4.3953,-4.3984,-4.3985,-4.3979,-4.4065,-4.4079,-4.4132,-4.4035,-4.4282,-4.429,-4.4296,-4.4367,-4.4381,-4.4394,0,0,0,0,0,-4.3764,-4.385,-4.3835,-4.3851,-4.3932,-4.4001,-4.4011,-4.4003,-4.3964,-4.4005,-4.4014,-4.3984,-4.4118,-4.4074,-4.409,-4.4145,-4.4279,-4.4288,-4.4296,-4.4361,-4.4379,-4.4394,0,0,0,0,0,0,-4.3825,-4.3854,-4.3837,-4.3936,-4.3967,-4.3992,-4.4044,-4.4023,-4.4064,-4.4056,-4.4043,-4.405,-4.4135,-4.4148,-4.4098,-4.4247,-4.4192,-4.4204,-4.4236,-4.4253,-4.4266,-4.4261,-4.404,0,0,0,0,0,-4.3851,-4.3906,-4.3927,-4.4013,-4.4029,-4.4034,-4.4064,-4.4055,-4.4085,-4.4098,-4.4113,-4.4142,-4.419,-4.4222,-4.4268,-4.4369,-4.4373,-4.4414,-4.4428,-4.4439,-4.4449,-4.4501,-4.4519,-4.4327,-4.4327,-4.4327,0,0,-4.3903,-4.3926,-4.3961,-4.4026,-4.4048,-4.4104,-4.4045,-4.4107,-4.4147,-4.4107,-4.4184,-4.4196,-4.4228,-4.4319,-4.436,-4.4332,-4.4503,-4.445,-4.4458,-4.4462,-4.4511,-4.453,-4.4546,-4.4333,-4.4332,-4.4331,0,0,-4.4027,-4.4051,-4.4123,-4.4148,-4.4183,-4.4186,-4.4203,-4.4232,-4.4238,-4.4317,-4.4287,-4.4333,-4.4418,-4.4441,-4.4464,-4.4595,-4.4569,-4.461,-4.4681,-4.4732,-4.4747,-4.476,-4.4805,-4.4822,-4.4621,-4.4621,-4.4621,0,-4.4087,-4.4172,-4.4163,-4.4227,-4.4255,-4.4222,-4.4294,-4.4317,-4.4366,-4.4385,-4.4354,-4.4458,-4.4477,-4.4572,-4.4604,-4.4624,-4.4642,-4.4606,-4.4746,-4.4759,-4.4771,-4.4814,-4.4831,-4.4625,-4.4625,-4.4624,-4.4624,0,-4.4243,-4.4302,-4.4356,-4.4405,-4.4439,-4.4507,-4.4506,-4.4542,-4.4529,-4.4534,-4.4613,-4.4635,-4.4683,-4.4705,-4.4694,-4.4798,-4.478,-4.4748,-4.4692,-4.4794,-4.4834,-4.4851,-4.4632,-4.463,-4.4629,-4.4628,0,0,-4.4408,-4.445,-4.447,-4.4491,-4.4527,-4.4571,-4.4637,-4.4685,-4.4715,-4.4749,-4.4802,-4.4873,-4.4843,-4.4869,-4.486,-4.4905,-4.5005,-4.4866,-4.4867,-4.489,-4.5119,-4.5142,-4.5161,-4.4988,-4.4991,-4.4994,-4.5116,0,-4.4532,-4.4648,-4.4641,-4.4749,-4.4802,-4.477,-4.4827,-4.4854,-4.486,-4.4904,-4.491,-4.496,-4.4918,-4.4933,-4.4976,-4.4984,-4.505,-4.4975,-4.5035,-4.5037,-4.5027,-4.5183,-4.5208,-4.5322,-4.5131,-4.5134,-4.5136,0,-4.4693,-4.4734,-4.4847,-4.4874,-4.4896,-4.4947,-4.499,-4.5033,-4.5062,-4.5063,-4.5092,-4.5075,-4.5138,-4.5082,-4.5167,-4.5116,-4.514,-4.5147,-4.5152,-4.5156,-4.5092,-4.5189,-4.5358,-4.5375,-4.5161,-4.5159,-4.5157,0,-4.48,-4.4883,-4.4961,-4.498,-4.5014,-4.505,-4.5065,-4.5091,-4.512,-4.5157,-4.5175,-4.5219,-4.5243,-4.5276,-4.527,-4.5229,-4.5357,-4.53,-4.5357,-4.5358,-4.5385,-4.5383,-4.5558,-4.5403,-4.5403,-4.5402,-4.5402,0,-4.4939,-4.5009,-4.5009,-4.5057,-4.5133,-4.5124,-4.52,-4.5211,-4.5234,-4.5282,-4.5257,-4.5302,-4.5292,-4.5336,-4.5331,-4.5402,-4.5413,-4.5414,-4.5412,-4.5416,-4.5415,-4.543,-4.5422,-4.5407,-4.5406,-4.5405,-4.5404,0,-4.5072,-4.5075,-4.5157,-4.5182,-4.519,-4.5245,-4.5266,-4.531,-4.5314,-4.5374,-4.5388,-4.5393,-4.5444,-4.5441,-4.5498,-4.5495,-4.5581,-4.5571,-4.5572,-4.5569,-4.5627,-4.5621,-4.5816,-4.5841,-4.5671,-4.5673,-4.5674,0,-4.516,-4.5213,-4.5244,-4.5275,-4.5293,-4.5343,-4.5372,-4.5365,-4.5396,-4.5433,-4.5472,-4.552,-4.5558,-4.564,-4.5648,-4.569,-4.5679,-4.5745,-4.5686,-4.5687,-4.5678,-4.5675,-4.5679,-4.5756,-4.5758,-4.576,-4.5761,0,-4.5315,-4.5314,-4.5358,-4.5403,-4.544,-4.5474,-4.5506,-4.5532,-4.5527,-4.5563,-4.5615,-4.5645,-4.5703,-4.575,-4.5791,-4.5804,-4.5781,-4.578,-4.5795,-4.5799,-4.5797,-4.5797,-4.5602,-4.5775,-4.5774,-4.5773,-4.5772,-4.5771,-4.5427,-4.5472,-4.5501,-4.555,-4.5574,-4.5603,-4.5646,-4.5655,-4.5699,-4.5746,-4.5738,-4.5796,-4.5821,-4.5874,-4.5891,-4.5934,-4.5911,-4.5933,-4.5939,-4.5944,-4.595,-4.5791,-4.5942,-4.5942,-4.5941,-4.5941,-4.5941,0,-4.5579,-4.5596,-4.5642,-4.5688,-4.5726,-4.5703,-4.5736,-4.5769,-4.5821,-4.5848,-4.5886,-4.5944,-4.599,-4.6001,-4.6044,-4.6077,-4.6067,-4.6088,-4.6085,-4.6088,-4.597,-4.5951,-4.6095,-4.6095,-4.6095,-4.6095,-4.6095,-4.6095,-4.5663,-4.5738,-4.574,-4.5824,-4.584,-4.5897,-4.5918,-4.5945,-4.5966,-4.6033,-4.6071,-4.6078,-4.6098,-4.6142,-4.6182,-4.6184,-4.62,-4.6226,-4.6223,-4.6112,-4.6097,-4.6082,-4.6064,-4.623,-4.623,-4.6338,-4.6339,-4.6339]}]]